カタログに戻る

METEOR 2-11 DEB

運用中PO
NORAD 40318·DEBRIS·🇷🇺 Russia

打ち上げ Jul 5, 1984 から Plesetsk Cosmodrome

Loading…

次のパス (今後24時間)

TLE

最新Source: Space-Track

元期: Sep 13, 2026, 10:47 UTC

1 40318U 84072D   26256.44956410  .00001504  00000-0  10802-2 0  9994
2 40318  82.5282 307.9721 0020954 116.3631 304.6156 13.96258361597533

AllMySatでMETEOR 2-11 DEBをリアルタイム追跡

Download on the App Store